THOR ABLESTAR DEB, 463

Orbit data source: Space-Track

THOR ABLESTAR DEB, 463 is space debris in LEO originally from a launch on Thu, 29 Jun 1961 UTC launched from the Air Force Eastern Test Range (AFETR). Debris objects in space refer to the collection of defunct objects orbiting the Earth. Examples of debris include non-operational satellites, rocket bodies, and fragments generated from explosions, collisions, or faulty payload assembly.

Loading next visibility...
Identifier
463, 1961-015EZ
Orbit
LEO
Country
Flag of USUS
Related business
Manufacturer
Unknown
Mission
Spacecraft
Bus & Motor
Unknown
Mass
Unknown
Launch date (UTC)
1961-06-29 (65 years ago)
Launch vehicle
Unknown
Launch site
Air Force Eastern Test Range (AFETR)
Object type
Payload
Rocket body
Debris
Shape & HBR
Unknown shape, 0.1 m
Radar Cross Section
Medium (>0.1 m² and <1 m²)

Expand to show TLE details & history
Last TLE update: 15 hours ago

TLE from 15 hours ago
0 THOR ABLESTAR DEB
1 00463U 61015EZ  26237.32128544  .00001858  00000-0  42241-3 0  9993
2 00463  66.7637 220.2677 0048180 211.2318 148.5931 14.57589359379203
Epoch: 2026-08-25T07:42Z
TLE epoch observation values (Epoch: 2026-08-25T07:42:39.062Z)
Latitude
0.00003°
Longitude
131.01464°
Altitude
732.265 km
Speed
7.474 km/s
True Right ascension
14h 41m 04s
True Declination
0° 00' 00"
Sunlit
Object was in daylight at epoch
Visualization orbit readout
Latitude
Unknown
Longitude
Unknown
Altitude
Unknown
Speed
Unknown
Apparent Right ascension
Unknown
Apparent Declination
Unknown
Sunlit
N/A
Visualization observer readout
Local Sidereal Time
13:52:45
Azimuth
Unknown
Elevation
Unknown
Doppler factor
Unknown
Orbital elements
Apogee altitude
733.414 km
Perigee altitude
665.216 km
Semi-major axis
7,077.452 km
Eccentricity
0.00482
Inclination
66.7637°
RAAN
220.2677°
Arg. of periapsis
211.2318°
True anomaly
148.87933°
Mean anomaly
148.5931°
Eccentric anomaly
148.73636°
Mean motion
3.64525 °/min
Orbital period
98.76 mins
BSTAR
0.00042241
Loading maneuver chart data...
Computing Atmospheric mass density...

Documentation

Showing up to 5 results
|